UAL555 KEWR-KPHX

Flight info

Callsign UAL555
Flight time N/A
Altitude 34000
Route ZIMMZ Q42 MIKYG Q480 AIR/N0473F360 J110 STL BUM ICT TOTOE/N0462F380 FTI BUKKO ZUN EAGUL6
Aircraft B739/M-SDE2E3FGHIRWXY/LB1

Departure

Time 2026-05-07 23:12
Airport Newark Liberty International Airport (KEWR)

Arrival

Time N/A
Airport Phoenix Sky Harbor International Airport (KPHX)
Time Latitude Longitude Altitude Speed Heading
2026-05-07 22:56 40.69706 -74.17462 25 ft 0 kts 305°
2026-05-07 23:03 40.69705 -74.17461 31 ft 3 kts 304°
2026-05-07 23:04 40.69694 -74.17439 21 ft 3 kts 307°
2026-05-07 23:04 40.69682 -74.17417 23 ft 3 kts 310°
2026-05-07 23:04 40.69666 -74.17407 22 ft 3 kts 28°
2026-05-07 23:04 40.69664 -74.17407 22 ft 0 kts 36°
2026-05-07 23:07 40.69674 -74.17398 24 ft 9 kts 36°
2026-05-07 23:07 40.69713 -74.17313 21 ft 11 kts 78°
2026-05-07 23:07 40.69721 -74.17203 21 ft 11 kts 110°
2026-05-07 23:08 40.69645 -74.17128 22 ft 17 kts 155°
2026-05-07 23:08 40.69525 -74.17082 21 ft 17 kts 168°
2026-05-07 23:08 40.69409 -74.17069 21 ft 18 kts 183°
2026-05-07 23:08 40.69293 -74.17110 21 ft 17 kts 204°
2026-05-07 23:09 40.69173 -74.17185 21 ft 22 kts 206°
2026-05-07 23:09 40.69022 -74.17280 21 ft 26 kts 205°
2026-05-07 23:09 40.68858 -74.17385 21 ft 24 kts 206°
2026-05-07 23:09 40.68713 -74.17480 21 ft 24 kts 207°
2026-05-07 23:10 40.68549 -74.17583 22 ft 27 kts 205°
2026-05-07 23:10 40.68390 -74.17684 21 ft 24 kts 206°
2026-05-07 23:10 40.68229 -74.17786 21 ft 28 kts 206°
2026-05-07 23:10 40.68111 -74.17853 21 ft 17 kts 182°
2026-05-07 23:11 40.68033 -74.17780 21 ft 6 kts 114°
2026-05-07 23:11 40.68012 -74.17710 20 ft 16 kts 102°
2026-05-07 23:11 40.68077 -74.17601 20 ft 14 kts 29°
2026-05-07 23:11 40.68249 -74.17496 21 ft 55 kts 24°
2026-05-07 23:12 40.68781 -74.17162 23 ft 112 kts 26°
2026-05-07 23:12 40.69635 -74.16639 27 ft 156 kts 22°
2026-05-07 23:12 40.70665 -74.15970 471 ft 166 kts 24°
2026-05-07 23:12 40.71336 -74.15438 876 ft 176 kts 36°
2026-05-07 23:13 40.72373 -74.14605 1524 ft 177 kts 20°
2026-05-07 23:13 40.73535 -74.13917 1973 ft 194 kts 22°
2026-05-07 23:13 40.74834 -74.13096 2206 ft 219 kts 24°
2026-05-07 23:13 40.76272 -74.12261 2608 ft 231 kts 12°
2026-05-07 23:14 40.77890 -74.12357 2973 ft 246 kts 337°
2026-05-07 23:14 40.79294 -74.13675 3675 ft 253 kts 310°
2026-05-07 23:14 40.80093 -74.15742 4496 ft 257 kts 282°